Time,TemperatureF,DewpointF,PressureIn,WindDirection,WindDirectionDegrees,WindSpeedMPH,WindSpeedGustMPH,Humidity,HourlyPrecipIn,Conditions,Clouds,dailyrainin,SoftwareType,DateUTC
2013-06-11 00:52:00,69.0,-99.9,-100.00,South,185,3.0,10.0,-999,-99.99,,,-99.99,,2013-06-11 06:52:00,
2013-06-11 01:52:00,68.0,-99.9,-100.00,South,185,14.0,15.0,-999,-99.99,,,-99.99,,2013-06-11 07:52:00,
2013-06-11 02:00:00,68.0,-99.9,-100.00,South,185,9.0,10.0,-999,-99.99,,,-99.99,,2013-06-11 08:00:00,
2013-06-11 02:52:00,68.0,-99.9,-100.00,South,185,9.0,10.0,-999,-99.99,,,-99.99,,2013-06-11 08:52:00,
2013-06-11 03:00:00,62.0,-99.9,-100.00,South,185,4.0,10.0,-999,-99.99,,,-99.99,,2013-06-11 09:00:00,
2013-06-11 03:53:00,62.0,-99.9,-100.00,South,185,4.0,10.0,-999,-99.99,,,-99.99,,2013-06-11 09:53:00,
2013-06-11 04:00:00,62.0,-99.9,-100.00,South,185,3.0,6.0,-999,-99.99,,,-99.99,,2013-06-11 10:00:00,
2013-06-11 04:52:00,62.0,-99.9,-100.00,South,185,3.0,6.0,-999,-99.99,,,-99.99,,2013-06-11 10:52:00,
2013-06-11 05:52:00,62.0,-99.9,-100.00,South,185,0.0,6.0,-999,-99.99,,,-99.99,,2013-06-11 11:52:00,
2013-06-11 06:02:00,62.0,-99.9,-100.00,South,185,0.0,6.0,-999,-99.99,,,-99.99,,2013-06-11 12:02:00,
2013-06-11 06:52:00,64.0,-99.9,-100.00,South,185,8.0,11.0,-999,-99.99,,,-99.99,,2013-06-11 12:52:00,
2013-06-11 07:00:00,66.0,-99.9,-100.00,South,185,9.0,11.0,-999,-99.99,,,-99.99,,2013-06-11 13:00:00,
2013-06-11 07:02:00,64.0,-99.9,-100.00,South,185,8.0,11.0,-999,-99.99,,,-99.99,,2013-06-11 13:02:00,
2013-06-11 07:52:00,66.0,-99.9,-100.00,South,185,9.0,11.0,-999,-99.99,,,-99.99,,2013-06-11 13:52:00,
2013-06-11 08:00:00,71.0,-99.9,-100.00,South,185,11.0,14.0,-999,-99.99,,,-99.99,,2013-06-11 14:00:00,
2013-06-11 08:53:00,71.0,-99.9,-100.00,South,185,11.0,14.0,-999,-99.99,,,-99.99,,2013-06-11 14:53:00,
2013-06-11 09:00:00,77.0,-99.9,-100.00,South,185,11.0,13.0,-999,-99.99,,,-99.99,,2013-06-11 15:00:00,
2013-06-11 09:53:00,77.0,-99.9,-100.00,South,185,11.0,13.0,-999,-99.99,,,-99.99,,2013-06-11 15:53:00,
2013-06-11 10:53:00,82.0,-99.9,-100.00,South,185,7.0,11.0,-999,-99.99,,,-99.99,,2013-06-11 16:53:00,
2013-06-11 11:00:00,86.0,-99.9,-100.00,South,185,7.0,9.0,-999,-99.99,,,-99.99,,2013-06-11 17:00:00,
2013-06-11 11:02:00,82.0,-99.9,-100.00,South,185,7.0,11.0,-999,-99.99,,,-99.99,,2013-06-11 17:02:00,
2013-06-11 11:53:00,86.0,-99.9,-100.00,South,185,7.0,9.0,-999,-99.99,,,-99.99,,2013-06-11 17:53:00,
2013-06-11 12:53:00,87.0,-99.9,-100.00,SW,230,13.0,17.0,-999,-99.99,,,-99.99,,2013-06-11 18:53:00,
2013-06-11 13:03:00,87.0,-99.9,-100.00,SW,230,13.0,17.0,-999,-99.99,,,-99.99,,2013-06-11 19:03:00,
2013-06-11 13:53:00,87.0,-99.9,-100.00,SW,230,6.0,15.0,-999,-99.99,,,-99.99,,2013-06-11 19:53:00,
2013-06-11 14:00:00,91.0,-99.9,-100.00,SW,230,5.0,15.0,-999,-99.99,,,-99.99,,2013-06-11 20:00:00,
2013-06-11 14:03:00,87.0,-99.9,-100.00,SW,230,6.0,15.0,-999,-99.99,,,-99.99,,2013-06-11 20:03:00,
2013-06-11 14:52:00,91.0,-99.9,-100.00,SW,230,5.0,15.0,-999,-99.99,,,-99.99,,2013-06-11 20:52:00,
2013-06-11 15:00:00,96.0,-99.9,-100.00,NE,50,12.0,12.0,-999,-99.99,,,-99.99,,2013-06-11 21:00:00,
2013-06-11 15:53:00,96.0,-99.9,-100.00,NE,50,12.0,12.0,-999,-99.99,,,-99.99,,2013-06-11 21:53:00,
2013-06-11 16:52:00,95.0,-99.9,-100.00,SW,230,13.0,15.0,-999,-99.99,,,-99.99,,2013-06-11 22:52:00,
2013-06-11 17:00:00,87.0,-99.9,-100.00,NNE,27,8.0,11.0,-999,-99.99,,,-99.99,,2013-06-11 23:00:00,
2013-06-11 17:03:00,95.0,-99.9,-100.00,SW,230,13.0,15.0,-999,-99.99,,,-99.99,,2013-06-11 23:03:00,
2013-06-11 17:52:00,87.0,-99.9,-100.00,NNE,27,8.0,11.0,-999,-99.99,,,-99.99,,2013-06-11 23:52:00,
2013-06-11 18:00:00,86.0,-99.9,-100.00,South,185,9.0,13.0,-999,-99.99,,,-99.99,,2013-06-12 00:00:00,
2013-06-11 18:52:00,86.0,-99.9,-100.00,South,185,9.0,13.0,-999,-99.99,,,-99.99,,2013-06-12 00:52:00,
2013-06-11 19:00:00,78.0,-99.9,-100.00,South,185,15.0,23.0,-999,-99.99,,,-99.99,,2013-06-12 01:00:00,
2013-06-11 19:52:00,78.0,-99.9,-100.00,South,185,15.0,23.0,-999,-99.99,,,-99.99,,2013-06-12 01:52:00,
2013-06-11 20:00:00,77.0,-99.9,-100.00,South,185,14.0,28.0,-999,-99.99,,,-99.99,,2013-06-12 02:00:00,
2013-06-11 20:52:00,77.0,-99.9,-100.00,South,185,14.0,28.0,-999,-99.99,,,-99.99,,2013-06-12 02:52:00,
2013-06-11 21:54:00,73.0,-99.9,-100.00,South,185,13.0,24.0,-999,-99.99,,,-99.99,,2013-06-12 03:54:00,
2013-06-11 22:00:00,71.0,-99.9,-100.00,South,185,9.0,18.0,-999,-99.99,,,-99.99,,2013-06-12 04:00:00,
2013-06-11 22:03:00,73.0,-99.9,-100.00,South,185,13.0,24.0,-999,-99.99,,,-99.99,,2013-06-12 04:03:00,
2013-06-11 22:53:00,71.0,-99.9,-100.00,South,185,9.0,18.0,-999,-99.99,,,-99.99,,2013-06-12 04:53:00,
2013-06-11 23:00:00,68.0,-99.9,-100.00,South,185,5.0,6.0,-999,-99.99,,,-99.99,,2013-06-12 05:00:00,
2013-06-11 23:52:00,68.0,-99.9,-100.00,South,185,5.0,6.0,-999,-99.99,,,-99.99,,2013-06-12 05:52:00,